Date,TemperatureHighF,TemperatureAvgF,TemperatureLowF,DewpointHighF,DewpointAvgF,DewpointLowF,HumidityHigh,HumidityAvg,HumidityLow,PressureMaxIn,PressureMinIn,WindSpeedMaxMPH,WindSpeedAvgMPH,GustSpeedMaxMPH,PrecipitationSumIn
2013-3-1,64.5,55.4,48.0,41.2,39.5,37.3,67,56,41,30.21,30.04,0,0,2,0.00
2013-3-2,63.5,55.6,49.2,46.8,42.9,38.5,69,62,53,30.04,29.89,9,0,12,0.00
2013-3-3,58.4,53.6,51.9,47.4,44.0,38.5,80,70,57,29.98,29.79,16,3,21,0.12
2013-3-4,67.8,57.7,49.6,43.8,41.2,38.9,68,55,39,30.19,29.98,2,0,4,0.00
2013-3-5,53.7,51.9,50.5,40.6,38.7,35.4,64,61,54,30.43,30.19,2,0,7,0.00
2013-3-6,63.6,55.0,48.2,40.2,37.5,35.0,61,52,38,30.43,30.16,6,0,10,0.00
2013-3-7,58.8,56.2,54.5,50.9,46.9,40.2,79,71,57,30.17,29.94,2,0,5,0.14
2013-3-8,68.5,57.4,54.3,54.2,50.0,47.9,80,77,59,29.93,29.87,0,0,114,0.02
2013-3-9,65.8,65.5,65.4,51.5,51.3,51.2,60,60,60,29.74,29.73,0,0,0,0.00
2013-3-10,73.9,63.8,60.9,51.4,50.9,50.4,69,63,45,29.77,29.72,0,0,2,0.00
2013-3-11,74.6,65.0,57.9,57.7,52.9,47.7,75,66,55,29.73,29.56,0,0,5,0.00
2013-3-12,75.9,65.5,59.5,50.2,46.5,44.0,62,51,36,29.71,29.57,2,0,5,0.00
2013-3-13,73.9,64.2,57.3,51.7,47.5,44.8,64,55,40,29.74,29.68,2,0,6,0.00
2013-3-14,71.4,64.8,61.1,54.7,51.2,45.8,78,62,43,29.71,29.30,7,0,11,0.00
2013-3-15,55.2,55.2,55.2,38.8,38.8,38.8,54,54,54,29.62,29.61,0,0,0,0.00
2013-3-16,62.7,55.9,52.1,41.9,38.7,36.5,58,53,43,30.02,29.60,5,0,7,0.00
2013-3-17,64.0,55.7,49.6,40.2,36.4,32.2,60,49,35,30.15,30.01,4,0,11,0.00
2013-3-18,59.7,57.9,56.8,46.9,43.8,41.2,68,60,51,30.14,29.96,0,0,4,0.00
2013-3-19,66.3,61.3,57.3,53.0,50.3,46.5,70,67,61,29.97,29.77,6,0,7,0.00
2013-3-20,68.7,63.6,57.5,55.1,51.1,48.0,72,64,58,29.91,29.81,0,0,2,0.00
2013-3-21,67.6,64.5,62.0,54.1,52.3,45.8,71,65,56,29.81,29.53,3,0,6,0.00
2013-3-22,67.8,62.1,57.9,45.3,40.5,35.6,56,46,37,29.76,29.54,6,0,6,0.00
2013-3-23,69.4,63.3,60.4,41.3,37.9,31.7,49,40,25,29.98,29.89,3,0,4,0.00
2013-3-24,69.4,62.4,56.6,51.8,46.2,40.3,62,56,49,30.02,29.94,4,0,7,0.00
2013-3-25,67.8,63.4,59.9,54.1,50.8,48.2,73,64,56,29.96,29.61,6,0,9,0.00
2013-3-26,70.5,64.3,60.4,53.9,49.9,46.7,73,60,49,29.65,29.53,2,0,6,0.00
2013-3-27,68.1,63.7,59.9,52.9,48.7,44.6,61,58,51,29.84,29.65,0,0,7,0.00
2013-3-28,69.4,63.4,60.6,54.4,50.6,47.5,71,63,57,30.03,29.84,1,0,4,0.10
2013-3-29,67.8,65.3,63.6,52.5,51.9,51.2,66,62,57,30.02,29.99,0,0,0,0.00
2013-3-30,74.4,67.5,61.5,54.7,52.6,50.8,68,59,48,30.01,29.82,6,0,6,0.00
2013-3-31,72.6,67.1,64.0,57.9,54.4,50.8,69,64,59,29.85,29.73,4,0,4,0.00